sat.trackr.live / text

‹ back to catalog

STARLINK-4641

NORAD 53730 · 2022-107AG

PAYLOAD ACTIVE UNKNOWN

§ Identity

Operator
Country
US
Launch date
2022-09-05
Launch site
AFETR
Launch vehicle
Mass (kg)
RCS (m²)

Purposes: comms

External: N2YO · Heavens-Above · Gunter

§ Orbital elements

Epoch: 2026-05-24T17:40:48.563616Z

Period
95.44 min
Inclination
53.2155°
Eccentricity
0.0001183
Mean motion
15.08837339 rev/d
Perigee alt
538.9 km
Apogee alt
540.6 km
Semi-major
6,917.9 km
B*
2.7254e-5
RAAN
272.7633°
Arg perigee
89.9422°
Mean anomaly
270.1706°
Rev number
20,603

§ Raw data

STARLINK-46411 53730U 22107AG  26144.73667319  .00000146  00000+0  27254-4 0  99932 53730  53.2155 272.7633 0001183  89.9422 270.1706 15.08837339206039

JSON: /api/v1/satellites/53730 · /tle

For live sub-satellite position, see the globe view (requires WebGL).

§ Visibility from observer

Set your observer location to see the next 7 days of passes ≥ 10°. The values pass through the URL so the page stays shareable.

No JS? Fill the form by hand. The geolocation button needs JavaScript.